CDT,Max TemperatureF,Mean TemperatureF,Min TemperatureF,Max Dew PointF,MeanDew PointF,Min DewpointF,Max Humidity, Mean Humidity, Min Humidity, Max Sea Level PressureIn, Mean Sea Level PressureIn, Min Sea Level PressureIn, Max VisibilityMiles, Mean VisibilityMiles, Min VisibilityMiles, Max Wind SpeedMPH, Mean Wind SpeedMPH, Max Gust SpeedMPH,PrecipitationIn, CloudCover, Events, WindDirDegrees
2013-4-1,73,59,44,54,50,44,100,75,49,30.13,30.04,29.96,10,4,0,14,3,17,0.00,1,Fog,6
2013-4-2,63,54,45,49,44,36,89,72,54,30.21,30.15,30.11,10,10,8,24,14,31,0.01,1,Rain,36
2013-4-3,45,44,42,41,39,38,89,83,76,30.20,30.14,30.09,10,8,2,25,15,31,0.36,8,Rain,34
2013-4-4,47,46,44,45,43,42,100,93,86,30.11,30.04,29.99,10,6,2,17,10,21,0.06,8,Rain,1
2013-4-5,66,53,39,47,43,39,100,70,40,30.23,30.15,30.07,10,7,0,12,4,25,0.00,2,Fog,344
2013-4-6,72,58,44,51,46,43,92,67,41,30.14,30.07,29.97,10,10,10,22,10,26,0.00,0,,183
2013-4-7,74,63,52,57,54,50,93,73,53,30.09,30.01,29.93,10,10,10,20,11,23,0.00,2,,177
2013-4-8,81,71,61,61,59,55,90,68,45,29.99,29.93,29.87,10,10,10,23,13,29,0.00,4,,171
2013-4-9,86,76,66,68,65,62,87,71,55,29.99,29.92,29.84,10,10,8,25,13,31,T,4,Rain-Thunderstorm,153
2013-4-10,83,73,63,69,67,64,84,71,58,29.95,29.83,29.69,10,10,8,29,13,33,0.07,7,Rain-Thunderstorm,160
2013-4-11,63,53,42,64,50,42,93,80,66,29.88,29.78,29.72,10,6,2,18,10,23,1.86,7,Rain-Thunderstorm,308
2013-4-12,70,55,39,53,44,39,100,70,40,30.02,29.95,29.88,10,7,0,13,4,16,0.00,0,Fog,211
2013-4-13,74,61,47,58,52,47,100,75,49,30.10,30.01,29.91,10,10,10,14,5,18,0.00,0,,45
2013-4-14,72,65,58,61,57,51,90,79,67,29.89,29.80,29.74,10,10,10,16,9,21,0.00,4,,138
2013-4-15,81,70,59,67,61,57,97,76,54,29.94,29.88,29.81,10,9,1,17,11,21,0.00,4,,147
2013-4-16,82,77,71,72,70,68,93,79,65,30.06,30.00,29.91,10,10,8,20,12,24,0.00,5,,169
2013-4-17,84,77,69,71,68,66,97,78,58,30.09,29.99,29.86,10,9,6,23,12,29,0.00,2,,167
2013-4-18,81,65,49,70,62,45,89,76,62,29.97,29.78,29.60,10,8,0,28,17,36,0.94,7,Fog-Rain-Thunderstorm,229
2013-4-19,59,51,43,44,37,32,92,68,43,30.21,30.11,29.97,10,10,10,21,10,28,0.00,3,,305
2013-4-20,67,53,39,47,41,32,100,66,32,30.30,30.24,30.20,10,8,0,10,3,13,0.00,0,Fog,104
2013-4-21,70,59,48,47,43,40,93,63,33,30.31,30.24,30.18,10,10,10,15,6,21,0.00,0,,76
2013-4-22,75,60,44,51,47,43,92,65,38,30.20,30.12,30.02,10,10,10,14,5,25,0.00,0,,129
2013-4-23,79,69,59,63,60,52,90,74,58,30.06,30.00,29.92,10,10,10,22,12,30,0.00,5,,168
2013-4-24,71,57,43,65,50,42,86,74,61,30.33,30.15,29.93,10,9,3,29,12,37,0.15,5,Rain,357
2013-4-25,68,53,37,46,42,36,100,71,42,30.42,30.35,30.32,10,8,1,15,6,20,0.00,0,,56
2013-4-26,75,62,49,53,47,42,80,63,45,30.33,30.26,30.18,10,10,10,15,7,21,0.00,4,,100
2013-4-27,77,70,62,66,63,53,93,79,64,30.16,30.05,29.93,10,10,8,23,11,26,T,5,Thunderstorm,202
2013-4-28,74,64,53,59,57,53,97,77,57,30.02,29.99,29.96,10,10,8,13,6,21,T,5,Rain,328
2013-4-29,81,66,51,65,56,52,100,71,42,30.03,29.95,29.90,10,5,0,9,4,15,0.00,3,Fog,138
2013-4-30,83,68,52,64,58,51,87,65,43,29.95,29.92,29.87,10,10,10,16,7,26,0.00,1,,137